Marianna, FL

3:40 AM CDT on October 24, 2017 (GMT -0500)
Marianna Municipal

Weather History for KMAI - January, 2012

Change the Weather History Date:

Friday, January 13, 2012

  Actual Average Record
Temperature  
Mean Temperature 39 °F 50 °F  
Max Temperature 48 °F 61 °F 80 °F (2013)
Min Temperature 30 °F 39 °F 24 °F (2011)
Degree Days  
Heating Degree Days 26    
Month to date heating degree days  
Since 1 July heating degree days  
Cooling Degree Days 0    
Month to date cooling degree days  
Year to date cooling degree days  
Moisture  
Dew Point 21 °F    
Average Humidity 51    
Maximum Humidity 72    
Minimum Humidity 29    
Precipitation  
Precipitation 0.00 in 0.15 in 2.48 in (2005)
Month to date precipitation 2.02  
Year to date precipitation 2.02  
Sea Level Pressure  
Sea Level Pressure 30.21 in    
Wind  
Wind Speed 6 mph (WNW)    
Max Wind Speed 12 mph    
Max Gust Speed -    
Visibility 10 miles    
Events      
T = Trace of Precipitation, MM = Missing Value Source: NWS Daily Summary

Daily Weather History Graph

Daily Weather History Graph

Search for Another Location

Airport or City:

Trip Planner

Search our weather history database for the weather conditions in past years. The results will help you decide how hot, cold, wet, or windy it might be!

Date:

Astronomy

Jan. 13, 2012 Rise Set
Actual Time 6:39 AM CST 4:59 PM CST
Civil Twilight 6:13 AM CST 5:25 PM CST
Nautical Twilight 5:43 AM CST 5:55 PM CST
Astronomical Twilight 5:14 AM CST 6:24 PM CST
Moon 9:46 PM CST (1/13) 9:15 AM CST (1/13)
Length of Visible Light 11h 12m
Length of Day
10h 19m
Waning Gibbous, 78% of the Moon is Illuminated
Jan 13
Waning Gibbous
Jan 16
Last Quarter
Jan 23
New
Jan 30
First Quarter
Feb 7
Full

Hourly Weather History & Observations

Time (CST) Temp. Windchill Dew Point Humidity Pressure Visibility Wind Dir Wind Speed Gust Speed Precip Events Conditions
12:53 AM 39.9 °F 35.8 °F 23.0 °F 51% 30.10 in 10.0 mi WNW 5.8 mph - N/A   Clear
1:53 AM 39.0 °F 32.3 °F 21.9 °F 50% 30.12 in 10.0 mi NW 10.4 mph - N/A   Clear
2:53 AM 36.0 °F 31.1 °F 21.9 °F 57% 30.14 in 10.0 mi WNW 5.8 mph - N/A   Clear
3:53 AM 35.1 °F 29.3 °F 19.9 °F 54% 30.14 in 10.0 mi NW 6.9 mph - N/A   Clear
4:53 AM 33.1 °F 30.0 °F 21.0 °F 61% 30.15 in 10.0 mi WNW 3.5 mph - N/A   Clear
5:53 AM 32.0 °F - 21.9 °F 66% 30.18 in 10.0 mi Calm Calm - N/A   Clear
6:53 AM 30.0 °F - 21.0 °F 69% 30.20 in 10.0 mi Calm Calm - N/A   Clear
8:53 AM 37.0 °F 29.3 °F 19.0 °F 48% 30.26 in 10.0 mi NNW 11.5 mph - N/A   Clear
9:53 AM 39.9 °F 32.9 °F 17.1 °F 40% 30.24 in 10.0 mi NNW 11.5 mph - N/A   Clear
10:53 AM 43.0 °F 37.2 °F 17.1 °F 35% 30.22 in 10.0 mi NW 10.4 mph - N/A   Clear
11:53 AM 45.0 °F 40.1 °F 18.0 °F 34% 30.20 in 10.0 mi WNW 9.2 mph - N/A   Clear
12:53 PM 46.9 °F - 17.1 °F 30% 30.18 in 10.0 mi West 9.2 mph - N/A   Clear
1:53 PM 48.0 °F - 18.0 °F 30% 30.18 in 10.0 mi WNW 9.2 mph - N/A   Clear
2:53 PM 48.9 °F - 18.0 °F 29% 30.17 in 10.0 mi NW 9.2 mph - N/A   Clear
3:53 PM 48.0 °F - 18.0 °F 30% 30.18 in 10.0 mi WNW 4.6 mph - N/A   Clear
4:53 PM 45.0 °F 42.6 °F 19.9 °F 37% 30.19 in 10.0 mi WNW 4.6 mph - N/A   Clear
5:53 PM 39.0 °F - 25.0 °F 57% 30.20 in 10.0 mi Calm Calm - N/A   Clear
6:53 PM 39.0 °F 36.8 °F 27.0 °F 62% 30.24 in 10.0 mi West 3.5 mph - N/A   Clear
7:53 PM 39.9 °F - 24.1 °F 53% 30.26 in 10.0 mi Calm Calm - N/A   Clear
8:53 PM 37.9 °F 35.5 °F 26.1 °F 62% 30.28 in 10.0 mi West 3.5 mph - N/A   Clear
9:53 PM 36.0 °F - 25.0 °F 64% 30.29 in 10.0 mi Calm Calm - N/A   Clear
10:53 PM 33.1 °F - 25.0 °F 72% 30.31 in 10.0 mi Calm Calm - N/A   Clear
11:53 PM 33.1 °F - 25.0 °F 72% 30.31 in 10.0 mi Calm Calm - N/A   Clear